Time,TemperatureF,DewpointF,PressureIn,WindDirection,WindDirectionDegrees,WindSpeedMPH,WindSpeedGustMPH,Humidity,HourlyPrecipIn,Conditions,Clouds,dailyrainin,SoftwareType,DateUTC
2013-07-20 00:06:00,81.7,75.0,29.74,SW,223,6.0,-999.0,79,-99.99,,,0.00,weatherlink.com 1.10,2013-07-20 04:06:00,
2013-07-20 00:21:00,81.4,75.0,29.73,SSW,195,4.0,-999.0,80,-99.99,,,0.00,weatherlink.com 1.10,2013-07-20 04:21:00,
2013-07-20 00:37:00,81.2,75.0,29.72,SW,215,0.0,-999.0,80,-99.99,,,0.00,weatherlink.com 1.10,2013-07-20 04:37:00,
2013-07-20 00:52:00,81.1,74.0,29.72,SW,232,0.0,-999.0,80,-99.99,,,0.00,weatherlink.com 1.10,2013-07-20 04:52:00,
2013-07-20 01:07:00,81.0,74.0,29.72,SSW,196,0.0,-999.0,80,-99.99,,,0.00,weatherlink.com 1.10,2013-07-20 05:07:00,
2013-07-20 01:22:00,81.0,74.0,29.72,SSW,213,0.0,-999.0,80,-99.99,,,0.00,weatherlink.com 1.10,2013-07-20 05:22:00,
2013-07-20 01:37:00,81.2,74.0,29.71,SW,235,0.0,-999.0,79,-99.99,,,0.00,weatherlink.com 1.10,2013-07-20 05:37:00,
2013-07-20 01:52:00,81.2,74.0,29.71,SSW,213,0.0,-999.0,79,-99.99,,,0.00,weatherlink.com 1.10,2013-07-20 05:52:00,
2013-07-20 02:07:00,81.1,74.0,29.73,West,271,1.0,-999.0,79,-99.99,,,0.00,weatherlink.com 1.10,2013-07-20 06:07:00,
2013-07-20 02:22:00,81.2,74.0,29.73,WSW,256,8.0,-999.0,79,-99.99,,,0.00,weatherlink.com 1.10,2013-07-20 06:22:00,
2013-07-20 02:37:00,81.4,74.0,29.73,WSW,246,0.0,-999.0,79,-99.99,,,0.00,weatherlink.com 1.10,2013-07-20 06:37:00,
2013-07-20 02:52:00,81.0,74.0,29.72,West,261,0.0,-999.0,80,-99.99,,,0.00,weatherlink.com 1.10,2013-07-20 06:52:00,
2013-07-20 03:07:00,81.0,74.0,29.72,WSW,250,0.0,-999.0,80,-99.99,,,0.00,weatherlink.com 1.10,2013-07-20 07:07:00,
2013-07-20 03:22:00,80.8,75.0,29.72,West,269,0.0,-999.0,81,-99.99,,,0.00,weatherlink.com 1.10,2013-07-20 07:22:00,
2013-07-20 03:37:00,80.3,74.0,29.72,West,264,0.0,-999.0,82,-99.99,,,0.00,weatherlink.com 1.10,2013-07-20 07:37:00,
2013-07-20 03:53:00,80.0,74.0,29.71,WSW,256,8.0,-999.0,83,-99.99,,,0.00,weatherlink.com 1.10,2013-07-20 07:53:00,
2013-07-20 04:08:00,79.8,74.0,29.71,West,271,0.0,-999.0,83,-99.99,,,0.00,weatherlink.com 1.10,2013-07-20 08:08:00,
2013-07-20 04:23:00,79.6,74.0,29.71,WSW,256,12.0,-999.0,84,-99.99,,,0.00,weatherlink.com 1.10,2013-07-20 08:23:00,
2013-07-20 04:38:00,79.4,74.0,29.71,West,259,8.0,-999.0,84,-99.99,,,0.00,weatherlink.com 1.10,2013-07-20 08:38:00,
2013-07-20 04:53:00,79.3,74.0,29.71,West,269,7.0,-999.0,83,-99.99,,,0.00,weatherlink.com 1.10,2013-07-20 08:53:00,
2013-07-20 05:08:00,79.1,73.0,29.71,West,274,0.0,-999.0,82,-99.99,,,0.00,weatherlink.com 1.10,2013-07-20 09:08:00,
2013-07-20 05:23:00,78.9,73.0,29.71,West,265,0.0,-999.0,81,-99.99,,,0.00,weatherlink.com 1.10,2013-07-20 09:23:00,
2013-07-20 05:38:00,77.6,72.0,29.71,West,265,0.0,-999.0,83,-99.99,,,0.00,weatherlink.com 1.10,2013-07-20 09:38:00,
2013-07-20 05:53:00,76.6,72.0,29.73,WSW,256,0.0,-999.0,85,-99.99,,,0.00,weatherlink.com 1.10,2013-07-20 09:53:00,
2013-07-20 06:08:00,75.6,71.0,29.72,West,263,0.0,-999.0,86,-99.99,,,0.00,weatherlink.com 1.10,2013-07-20 10:08:00,
2013-07-20 06:24:00,75.4,71.0,29.73,West,263,0.0,-999.0,87,-99.99,,,0.00,weatherlink.com 1.10,2013-07-20 10:24:00,
2013-07-20 06:39:00,75.3,71.0,29.73,West,263,0.0,-999.0,87,-99.99,,,0.00,weatherlink.com 1.10,2013-07-20 10:39:00,
2013-07-20 06:54:00,75.1,71.0,29.74,West,263,0.0,-999.0,88,-99.99,,,0.00,weatherlink.com 1.10,2013-07-20 10:54:00,
2013-07-20 07:09:00,75.2,71.0,29.75,West,263,0.0,-999.0,87,-99.99,,,0.00,weatherlink.com 1.10,2013-07-20 11:09:00,
2013-07-20 07:24:00,75.2,71.0,29.75,West,263,0.0,-999.0,86,-99.99,,,0.00,weatherlink.com 1.10,2013-07-20 11:24:00,
2013-07-20 07:39:00,75.6,71.0,29.75,West,265,0.0,-999.0,86,-99.99,,,0.00,weatherlink.com 1.10,2013-07-20 11:39:00,
2013-07-20 07:54:00,75.8,71.0,29.75,West,266,0.0,-999.0,84,-99.99,,,0.00,weatherlink.com 1.10,2013-07-20 11:54:00,
2013-07-20 08:09:00,75.6,71.0,29.75,West,267,0.0,-999.0,84,-99.99,,,0.00,weatherlink.com 1.10,2013-07-20 12:09:00,
2013-07-20 08:24:00,76.7,71.0,29.75,WNW,290,0.0,-999.0,83,-99.99,,,0.00,weatherlink.com 1.10,2013-07-20 12:24:00,
2013-07-20 08:39:00,77.7,71.0,29.76,WNW,290,0.0,-999.0,80,-99.99,,,0.00,weatherlink.com 1.10,2013-07-20 12:39:00,
2013-07-20 08:54:00,78.2,71.0,29.77,WNW,299,0.0,-999.0,79,-99.99,,,0.00,weatherlink.com 1.10,2013-07-20 12:54:00,
2013-07-20 09:09:00,78.7,71.0,29.77,WNW,300,0.0,-999.0,77,-99.99,,,0.00,weatherlink.com 1.10,2013-07-20 13:09:00,
2013-07-20 09:25:00,79.5,71.0,29.78,WNW,300,0.0,-999.0,75,-99.99,,,0.00,weatherlink.com 1.10,2013-07-20 13:25:00,
2013-07-20 09:40:00,79.7,71.0,29.78,WNW,299,0.0,-999.0,74,-99.99,,,0.00,weatherlink.com 1.10,2013-07-20 13:40:00,
2013-07-20 09:55:00,81.5,73.0,29.78,NW,311,0.0,-999.0,74,-99.99,,,0.00,weatherlink.com 1.10,2013-07-20 13:55:00,
2013-07-20 10:10:00,81.4,71.0,29.78,NW,309,0.0,-999.0,71,-99.99,,,0.00,weatherlink.com 1.10,2013-07-20 14:10:00,
2013-07-20 10:25:00,81.2,71.0,29.79,NW,308,0.0,-999.0,72,-99.99,,,0.00,weatherlink.com 1.10,2013-07-20 14:25:00,
2013-07-20 10:40:00,82.6,72.0,29.79,NW,311,0.0,-999.0,71,-99.99,,,0.00,weatherlink.com 1.10,2013-07-20 14:40:00,
2013-07-20 10:55:00,84.2,71.0,29.79,NW,311,0.0,-999.0,64,-99.99,,,0.00,weatherlink.com 1.10,2013-07-20 14:55:00,
2013-07-20 11:10:00,85.0,70.0,29.79,NW,315,0.0,-999.0,61,-99.99,,,0.00,weatherlink.com 1.10,2013-07-20 15:10:00,
2013-07-20 11:25:00,84.5,68.0,29.79,NW,315,0.0,-999.0,58,-99.99,,,0.00,weatherlink.com 1.10,2013-07-20 15:25:00,
2013-07-20 11:40:00,84.4,69.0,29.79,WNW,298,0.0,-999.0,60,-99.99,,,0.00,weatherlink.com 1.10,2013-07-20 15:40:00,
2013-07-20 11:55:00,83.4,69.0,29.79,WNW,295,0.0,-999.0,62,-99.99,,,0.00,weatherlink.com 1.10,2013-07-20 15:55:00,
2013-07-20 12:11:00,85.1,68.0,29.79,NW,306,6.0,-999.0,56,-99.99,,,0.00,weatherlink.com 1.10,2013-07-20 16:11:00,
2013-07-20 12:26:00,86.0,66.0,29.79,WNW,289,0.0,-999.0,52,-99.99,,,0.00,weatherlink.com 1.10,2013-07-20 16:26:00,
2013-07-20 12:41:00,87.0,64.0,29.80,WNW,290,5.0,-999.0,46,-99.99,,,0.00,weatherlink.com 1.10,2013-07-20 16:41:00,
2013-07-20 12:56:00,85.7,64.0,29.80,NW,311,0.0,-999.0,49,-99.99,,,0.00,weatherlink.com 1.10,2013-07-20 16:56:00,
2013-07-20 13:11:00,86.0,61.0,29.79,WNW,290,6.0,-999.0,43,-99.99,,,0.00,weatherlink.com 1.10,2013-07-20 17:11:00,
2013-07-20 13:26:00,86.1,63.0,29.80,NW,312,0.0,-999.0,46,-99.99,,,0.00,weatherlink.com 1.10,2013-07-20 17:26:00,
2013-07-20 13:41:00,87.0,65.0,29.80,NNW,327,7.0,-999.0,48,-99.99,,,0.00,weatherlink.com 1.10,2013-07-20 17:41:00,
2013-07-20 13:56:00,87.2,64.0,29.80,West,267,7.0,-999.0,46,-99.99,,,0.00,weatherlink.com 1.10,2013-07-20 17:56:00,
2013-07-20 14:11:00,87.4,65.0,29.79,NNW,337,0.0,-999.0,47,-99.99,,,0.00,weatherlink.com 1.10,2013-07-20 18:11:00,
2013-07-20 14:41:00,87.0,63.0,29.78,NW,322,0.0,-999.0,44,-99.99,,,0.00,weatherlink.com 1.10,2013-07-20 18:41:00,
2013-07-20 15:12:00,88.1,64.0,29.78,NW,311,5.0,-999.0,45,-99.99,,,0.00,weatherlink.com 1.10,2013-07-20 19:12:00,
2013-07-20 15:27:00,87.8,64.0,29.79,NW,311,0.0,-999.0,45,-99.99,,,0.00,weatherlink.com 1.10,2013-07-20 19:27:00,
2013-07-20 15:42:00,86.8,64.0,29.79,NW,319,0.0,-999.0,46,-99.99,,,0.00,weatherlink.com 1.10,2013-07-20 19:42:00,
2013-07-20 15:57:00,86.2,64.0,29.79,NW,316,0.0,-999.0,47,-99.99,,,0.00,weatherlink.com 1.10,2013-07-20 19:57:00,
2013-07-20 16:27:00,88.3,64.0,29.79,NW,312,0.0,-999.0,45,-99.99,,,0.00,weatherlink.com 1.10,2013-07-20 20:27:00,
2013-07-20 16:42:00,88.6,63.0,29.79,WNW,303,0.0,-999.0,43,-99.99,,,0.00,weatherlink.com 1.10,2013-07-20 20:42:00,
2013-07-20 16:57:00,87.1,64.0,29.78,NW,309,4.0,-999.0,46,-99.99,,,0.00,weatherlink.com 1.10,2013-07-20 20:57:00,
2013-07-20 17:12:00,87.3,64.0,29.78,NW,304,3.0,-999.0,46,-99.99,,,0.00,weatherlink.com 1.10,2013-07-20 21:12:00,
2013-07-20 17:27:00,87.9,64.0,29.77,NW,313,3.0,-999.0,45,-99.99,,,0.00,weatherlink.com 1.10,2013-07-20 21:27:00,
2013-07-20 17:42:00,87.2,64.0,29.77,NW,326,0.0,-999.0,46,-99.99,,,0.00,weatherlink.com 1.10,2013-07-20 21:42:00,
2013-07-20 17:57:00,87.0,65.0,29.78,WNW,296,6.0,-999.0,48,-99.99,,,0.00,weatherlink.com 1.10,2013-07-20 21:57:00,
2013-07-20 18:12:00,87.0,65.0,29.78,NW,311,2.0,-999.0,48,-99.99,,,0.00,weatherlink.com 1.10,2013-07-20 22:12:00,
2013-07-20 18:28:00,87.0,66.0,29.78,NNW,328,8.0,-999.0,49,-99.99,,,0.00,weatherlink.com 1.10,2013-07-20 22:28:00,
2013-07-20 18:43:00,86.1,64.0,29.78,WNW,290,7.0,-999.0,48,-99.99,,,0.00,weatherlink.com 1.10,2013-07-20 22:43:00,
2013-07-20 18:58:00,85.4,63.0,29.78,NNW,327,5.0,-999.0,47,-99.99,,,0.00,weatherlink.com 1.10,2013-07-20 22:58:00,
2013-07-20 19:13:00,84.3,62.0,29.79,NNW,345,7.0,-999.0,48,-99.99,,,0.00,weatherlink.com 1.10,2013-07-20 23:13:00,
2013-07-20 19:28:00,84.2,62.0,29.80,NW,315,1.0,-999.0,47,-99.99,,,0.00,weatherlink.com 1.10,2013-07-20 23:28:00,
2013-07-20 19:43:00,83.8,63.0,29.80,NW,322,2.0,-999.0,49,-99.99,,,0.00,weatherlink.com 1.10,2013-07-20 23:43:00,
2013-07-20 19:58:00,82.9,62.0,29.81,NNW,330,5.0,-999.0,49,-99.99,,,0.00,weatherlink.com 1.10,2013-07-20 23:58:00,
2013-07-20 20:13:00,82.4,63.0,29.81,NW,321,4.0,-999.0,52,-99.99,,,0.00,weatherlink.com 1.10,2013-07-21 00:13:00,
2013-07-20 20:28:00,81.7,63.0,29.81,NNW,329,4.0,-999.0,53,-99.99,,,0.00,weatherlink.com 1.10,2013-07-21 00:28:00,
2013-07-20 20:43:00,81.2,61.0,29.81,NW,321,0.0,-999.0,51,-99.99,,,0.00,weatherlink.com 1.10,2013-07-21 00:43:00,
2013-07-20 20:58:00,80.6,61.0,29.82,NNW,334,0.0,-999.0,51,-99.99,,,0.00,weatherlink.com 1.10,2013-07-21 00:58:00,
2013-07-20 21:29:00,78.6,60.0,29.84,NNW,334,0.0,-999.0,54,-99.99,,,0.00,weatherlink.com 1.10,2013-07-21 01:29:00,
2013-07-20 21:44:00,77.9,60.0,29.84,NNW,335,0.0,-999.0,55,-99.99,,,0.00,weatherlink.com 1.10,2013-07-21 01:44:00,
2013-07-20 21:59:00,77.5,61.0,29.85,NNW,334,0.0,-999.0,57,-99.99,,,0.00,weatherlink.com 1.10,2013-07-21 01:59:00,
2013-07-20 22:29:00,75.9,61.0,29.85,NNW,334,0.0,-999.0,61,-99.99,,,0.00,weatherlink.com 1.10,2013-07-21 02:29:00,
2013-07-20 22:44:00,75.5,61.0,29.85,NNW,335,0.0,-999.0,61,-99.99,,,0.00,weatherlink.com 1.10,2013-07-21 02:44:00,
2013-07-20 22:59:00,75.1,62.0,29.86,NNW,334,0.0,-999.0,63,-99.99,,,0.00,weatherlink.com 1.10,2013-07-21 02:59:00,
2013-07-20 23:14:00,74.7,61.0,29.86,NNW,334,0.0,-999.0,63,-99.99,,,0.00,weatherlink.com 1.10,2013-07-21 03:14:00,
2013-07-20 23:29:00,74.0,62.0,29.86,NNW,334,0.0,-999.0,66,-99.99,,,0.00,weatherlink.com 1.10,2013-07-21 03:29:00,
2013-07-20 23:44:00,73.6,62.0,29.86,NNW,334,0.0,-999.0,66,-99.99,,,0.00,weatherlink.com 1.10,2013-07-21 03:44:00,
2013-07-20 23:59:00,73.2,62.0,29.86,NNW,334,0.0,-999.0,68,-99.99,,,0.00,weatherlink.com 1.10,2013-07-21 03:59:00,